Vorticity
5 13 -1 5 -9 29 19 13 18 14 2 4 4 30 -19 -39 -5 1 2 2 8 5 6 1 2 8 14 7 8 4 8 4 6 8 11 9 12 10 8 10 10 10 11 11
6 8 10 5 1 17 9 17 -2 -4 -16 13 -11 11 38 15 21 -4 -1 -1 5 3 -1 5 2 4 7 14 8 7 5 3 5 6 6 6 8 7 8 8 8 9 16 14
5 11 10 10 10 -7 -5 26 6 -3 29 1 6 19 -0 17 3 -0 16 8 8 10 8 8 -1 4 3 2 10 10 11 9 7 4 7 5 6 5 5 9 9 13 10 8
14 16 8 0 6 10 5 18 7 21 9 -15 -4 2 47 12 25 -4 4 8 5 4 9 5 9 -1 3 3 1 0 2 6 9 8 8 7 7 12 11 12 19 10 8 11
8 10 5 10 6 7 9 6 28 7 19 8 17 -14 38 20 9 21 22 2 -6 1 3 9 14 12 7 5 5 3 3 4 4 4 6 8 7 7 8 7 7 12 7 3
-4 11 12 7 9 5 15 20 17 17 4 1 10 -29 24 14 12 19 18 16 11 11 7 8 19 10 6 11 8 6 8 11 2 1 1 4 8 6 7 8 10 9 6 10
19 3 10 19 0 9 -0 11 8 9 12 6 34 15 -37 14 18 10 10 18 31 24 20 18 14 14 5 2 5 8 5 4 6 10 14 11 5 8 7 9 7 9 6 9
16 34 -7 33 9 -9 4 4 -2 9 7 11 10 17 -10 38 15 0 3 16 -1 3 12 9 12 23 25 4 -0 5 -3 9 5 5 5 8 13 8 9 13 11 12 7 1
8 22 20 -12 24 1 21 6 -6 -8 5 9 5 22 1 6 13 19 3 5 18 8 9 8 5 7 3 15 35 26 18 2 5 6 6 7 8 15 12 11 15 12 3 -12
9 6 21 24 9 16 -22 24 14 1 7 6 18 10 -27 37 15 3 13 7 4 -1 3 3 10 8 5 4 8 18 18 17 13 13 16 15 14 11 7 10 13 13 20 22
1 -9 -4 27 13 4 6 5 -1 31 -28 8 7 22 33 -11 2 25 4 2 4 15 15 14 14 8 13 3 3 1 7 7 12 10 6 12 10 14 16 13 9 2 4 -0
9 2 47 -23 5 14 19 13 -7 -26 22 -7 7 18 23 25 30 21 13 11 13 1 17 21 20 8 12 12 8 7 11 17 10 11 3 9 17 15 21 -13 10 1 -2 6
-3 13 48 21 39 30 35 14 10 7 2 6 -32 6 7 8 14 8 10 12 16 16 18 21 24 20 15 18 25 17 9 20 9 16 6 4 6 -10 -12 11 30 -4 0 -3
9 16 3 -22 -7 13 34 27 12 -2 5 2 4 23 5 -4 -1 14 6 5 4 -3 -7 -3 -0 2 5 5 11 16 18 15 11 6 6 14 10 19 7 39 46 1 15 8
18 11 0 -2 16 7 14 46 21 20 -31 7 28 6 14 14 5 4 1 -9 2 6 7 7 12 8 -2 -4 -9 -10 15 12 20 26 14 8 10 10 -8 12 11 13 12 7
31 16 18 13 4 35 -11 25 -22 19 11 21 -19 -14 -13 -28 -19 -17 -15 -14 1 -4 -4 -0 4 4 5 19 8 -6 2 12 7 19 13 9 9 9 14 14 13 6 5 9
10 18 4 34 -1 26 29 40 26 7 6 17 15 4 24 29 15 8 13 12 11 13 9 11 15 14 16 16 17 18 10 4 14 9 16 17 16 16 15 10 9 10 10 9
13 15 1 5 11 10 15 0 26 28 8 14 26 28 -7 -1 12 16 20 18 10 12 12 11 7 8 8 9 11 7 16 17 15 14 12 13 11 10 9 9 9 8 7 8
12 8 12 5 12 8 -1 6 9 15 13 13 31 23 22 14 9 11 13 14 12 10 14 16 15 13 15 16 14 12 16 17 14 13 10 9 7 7 9 7 5 6 6 5
3 5 5 13 16 5 -5 13 34 19 15 16 18 18 18 19 11 24 16 13 12 8 15 14 14 14 12 11 19 14 17 14 10 7 9 7 6 7 5 4 5 6 5 6
10 12 11 5 3 14 10 1 1 5 3 8 8 17 19 16 15 14 12 10 10 9 9 10 14 16 14 17 18 20 14 15 14 6 6 6 7 7 4 4 5 5 9 14
4 8 9 21 6 19 13 12 2 8 6 5 3 3 2 2 4 7 10 11 12 13 13 12 15 18 13 16 16 15 11 18 11 6 5 4 6 5 5 4 5 9 9 14
7 1 -4 -2 6 -7 0 11 6 5 3 1 -0 11 18 16 19 13 10 14 18 18 17 17 18 19 18 16 20 9 9 11 14 23 13 10 7 6 3 5 5 10 15 9
16 9 -7 4 25 19 12 31 20 11 2 8 10 6 6 3 9 7 7 13 15 13 15 16 19 20 26 20 17 8 13 17 16 13 6 6 6 3 3 5 4 3 13 10
10 5 6 9 15 15 14 12 2 1 17 4 5 4 6 7 2 10 12 15 11 16 10 12 12 19 14 16 11 11 12 9 6 5 6 5 3 5 5 4 2 4 13 10
8 2 8 7 7 8 6 12 8 4 9 21 3 10 10 12 3 9 15 10 8 16 13 14 11 10 11 15 15 14 11 8 7 6 5 3 4 4 5 6 -0 16 5 6
Height
3062 3064 3066 3068 3071 3073 3076 3079 3081 3084 3089 3092 3093 3095 3096 3101 3105 3106 3112 3116 3119 3122 3127 3129 3131 3134 3138 3142 3145 3150 3153 3156 3158 3161 3165 3167 3169 3169 3170 3172 3174 3176 3176 3178
3065 3066 3066 3068 3070 3072 3076 3078 3079 3081 3086 3089 3088 3090 3095 3096 3100 3104 3109 3112 3115 3118 3122 3126 3128 3129 3134 3138 3142 3145 3150 3152 3154 3156 3159 3161 3164 3164 3165 3165 3167 3168 3169 3170
3065 3067 3067 3069 3069 3070 3072 3073 3073 3077 3078 3083 3087 3090 3095 3094 3095 3098 3104 3107 3110 3113 3116 3119 3123 3126 3129 3132 3137 3141 3145 3148 3149 3152 3154 3155 3157 3158 3160 3161 3161 3162 3164 3165
3064 3065 3066 3069 3071 3073 3073 3073 3075 3077 3078 3082 3085 3085 3084 3089 3092 3095 3098 3099 3102 3106 3111 3114 3117 3121 3125 3128 3132 3136 3140 3142 3145 3147 3148 3151 3152 3153 3156 3156 3157 3158 3160 3160
3063 3064 3066 3067 3069 3070 3071 3073 3074 3076 3079 3081 3083 3087 3077 3083 3085 3088 3091 3094 3097 3101 3104 3107 3110 3114 3120 3124 3127 3130 3133 3135 3137 3140 3143 3145 3146 3149 3150 3151 3152 3152 3154 3155
3061 3063 3064 3066 3068 3069 3072 3072 3074 3076 3078 3080 3077 3080 3074 3076 3078 3082 3085 3086 3090 3094 3097 3100 3103 3108 3112 3115 3119 3121 3126 3128 3132 3134 3137 3139 3141 3142 3144 3145 3145 3147 3148 3150
3058 3059 3061 3063 3066 3069 3070 3071 3075 3079 3076 3073 3074 3080 3071 3073 3074 3077 3079 3081 3083 3087 3090 3092 3096 3100 3105 3108 3112 3116 3119 3122 3125 3127 3130 3132 3133 3135 3136 3138 3139 3140 3142 3143
3057 3058 3058 3058 3061 3064 3067 3068 3067 3070 3072 3071 3073 3071 3068 3071 3073 3073 3075 3077 3080 3082 3085 3087 3091 3094 3098 3103 3106 3110 3113 3115 3117 3120 3122 3124 3126 3128 3130 3132 3132 3132 3132 3135
3054 3052 3053 3054 3057 3063 3063 3064 3068 3068 3069 3069 3066 3064 3065 3066 3068 3070 3072 3073 3075 3077 3080 3084 3087 3090 3094 3097 3100 3104 3106 3108 3109 3111 3114 3117 3118 3120 3122 3124 3126 3126 3127 3127
3051 3051 3050 3052 3054 3056 3058 3061 3064 3065 3067 3068 3062 3061 3060 3060 3063 3065 3067 3069 3071 3074 3076 3079 3082 3085 3089 3092 3094 3096 3098 3100 3101 3102 3105 3108 3110 3113 3115 3117 3118 3119 3120 3120
3048 3049 3048 3048 3047 3049 3053 3055 3058 3061 3063 3062 3061 3057 3057 3059 3060 3062 3065 3067 3069 3070 3072 3073 3077 3079 3082 3085 3088 3089 3091 3093 3095 3097 3099 3101 3104 3107 3108 3110 3112 3113 3114 3115
3047 3044 3041 3041 3042 3044 3047 3049 3052 3054 3056 3058 3058 3056 3055 3056 3057 3059 3062 3063 3064 3066 3067 3068 3071 3074 3077 3079 3082 3083 3085 3086 3089 3091 3094 3097 3099 3102 3104 3106 3105 3102 3104 3105
3041 3039 3035 3036 3040 3039 3039 3041 3046 3049 3052 3051 3056 3054 3055 3056 3058 3059 3060 3061 3062 3064 3065 3064 3067 3070 3073 3075 3076 3078 3079 3080 3082 3084 3088 3090 3094 3096 3097 3096 3095 3094 3095 3096
3036 3035 3036 3033 3034 3034 3034 3033 3039 3043 3046 3045 3044 3050 3054 3054 3056 3057 3057 3058 3059 3061 3062 3063 3065 3068 3070 3072 3073 3073 3074 3074 3075 3077 3080 3083 3086 3087 3089 3086 3084 3087 3088 3089
3031 3029 3031 3032 3030 3029 3028 3028 3031 3031 3037 3040 3041 3045 3049 3051 3052 3052 3054 3054 3055 3057 3058 3060 3062 3065 3066 3068 3069 3070 3070 3070 3071 3071 3073 3076 3078 3080 3081 3081 3081 3081 3082 3083
3025 3024 3024 3023 3026 3025 3025 3025 3027 3029 3031 3033 3037 3036 3043 3047 3048 3048 3049 3051 3051 3052 3053 3054 3056 3058 3061 3061 3062 3063 3064 3065 3065 3066 3066 3068 3071 3073 3074 3074 3074 3075 3076 3078
3023 3023 3024 3021 3023 3022 3021 3017 3019 3023 3026 3029 3028 3027 3036 3038 3040 3043 3045 3044 3043 3044 3046 3047 3049 3050 3051 3052 3053 3055 3056 3057 3058 3059 3060 3062 3064 3066 3068 3069 3070 3071 3071 3071
3021 3022 3023 3022 3022 3020 3016 3015 3015 3018 3022 3023 3021 3024 3029 3032 3035 3036 3036 3036 3037 3038 3039 3040 3041 3042 3043 3044 3044 3046 3048 3049 3051 3053 3054 3056 3058 3061 3063 3064 3064 3064 3064 3064
3021 3022 3022 3022 3021 3019 3018 3018 3018 3017 3019 3017 3016 3019 3023 3025 3028 3028 3029 3030 3031 3032 3033 3033 3033 3034 3034 3036 3038 3039 3040 3041 3043 3047 3050 3052 3054 3056 3057 3058 3058 3058 3058 3057
3021 3022 3023 3022 3021 3018 3019 3017 3016 3016 3016 3015 3015 3015 3016 3020 3021 3024 3023 3023 3024 3025 3025 3026 3026 3026 3027 3029 3031 3033 3034 3035 3039 3043 3046 3047 3049 3050 3051 3051 3052 3052 3052 3050
3021 3021 3021 3021 3019 3017 3016 3016 3016 3017 3022 3016 3015 3015 3015 3017 3019 3019 3019 3019 3019 3019 3020 3019 3019 3020 3021 3022 3024 3027 3029 3031 3035 3037 3040 3042 3044 3045 3046 3046 3047 3046 3045 3043
3022 3021 3019 3020 3020 3017 3014 3014 3015 3014 3014 3014 3015 3015 3014 3014 3015 3015 3016 3015 3015 3014 3013 3013 3013 3013 3014 3016 3018 3022 3024 3026 3028 3031 3034 3037 3038 3040 3041 3041 3040 3039 3038 3035
3019 3019 3019 3018 3016 3014 3012 3012 3011 3011 3011 3012 3012 3012 3012 3012 3012 3012 3012 3011 3011 3010 3009 3008 3008 3007 3008 3010 3013 3016 3019 3020 3023 3025 3028 3031 3033 3034 3034 3034 3034 3032 3030 3028
3015 3015 3014 3015 3012 3010 3010 3008 3006 3007 3007 3009 3009 3009 3009 3010 3010 3010 3010 3009 3008 3007 3007 3006 3004 3004 3004 3006 3009 3012 3014 3016 3018 3021 3023 3026 3027 3028 3028 3028 3026 3025 3023 3021
3013 3011 3010 3008 3009 3006 3003 3003 3002 3001 3001 3003 3005 3006 3007 3008 3007 3007 3007 3006 3006 3006 3005 3004 3003 3003 3003 3005 3007 3009 3010 3013 3015 3017 3019 3020 3021 3022 3021 3021 3020 3018 3017 3016
3008 3007 3006 3002 3000 2998 2998 2997 2996 2996 2997 2998 3000 3002 3003 3004 3003 3003 3004 3004 3004 3004 3003 3003 3002 3002 3002 3003 3005 3006 3008 3010 3011 3013 3014 3014 3014 3014 3014 3013 3013 3012 3010 3009